Weather History for Tampa, FL

Change the Weather History Date:

Thursday, January 30, 2014

  Actual Average Record
Temperature  
Mean Temperature 47 °F 62 °F  
Max Temperature 50 °F 71 °F 85 °F (2002)
Min Temperature 43 °F 53 °F 26 °F (1966)
Degree Days  
Heating Degree Days 18 5  
Month to date heating degree days 246 175  
Since 1 July heating degree days 308 358  
Cooling Degree Days 0 2  
Month to date cooling degree days 21 58  
Year to date cooling degree days 21 58  
Moisture  
Dew Point 44 °F    
Average Humidity 93    
Maximum Humidity 100    
Minimum Humidity 86    
Precipitation  
Precipitation 0.18 in 0.08 in 1.09 in (2009)
Month to date precipitation 2.51 2.15  
Year to date precipitation 2.51 2.15  
Sea Level Pressure  
Sea Level Pressure 30.16 in    
Wind  
Wind Speed 8 mph (NNE)    
Max Wind Speed 14 mph    
Max Gust Speed 20 mph    
Visibility 6 miles    
Events Rain    
T = Trace of Precipitation, MM = Missing Value Source: NWS Daily Summary

Daily Weather History Graph

Daily Weather History Graph

Search for Another Location

Airport:

Trip Planner

Search our weather history database for the weather conditions in past years. The results will help you decide how hot, cold, wet, or windy it might be!

Date:

Astronomy

Jan. 30, 2014 Rise Set
Actual Time 7:18 AM EST 6:09 PM EST
Civil Twilight 6:53 AM EST 6:33 PM EST
Nautical Twilight 6:25 AM EST 7:01 PM EST
Astronomical Twilight 5:57 AM EST 7:29 PM EST
Moon 6:46 AM EST (1/30) 6:14 PM EST (1/30)
Length of Visible Light 11h 40m
Length of Day
10h 50m
Waning Crescent, 0% of the Moon is Illuminated
Jan 30
Waning Crescent
Jan 30
New
Feb 6
First Quarter
Feb 14
Full
Feb 22
Last Quarter

Hourly Weather History & Observations

Time (EST) Temp. Windchill Dew Point Humidity Pressure Visibility Wind Dir Wind Speed Gust Speed Precip Events Conditions
12:53 AM 45.0 °F 39.7 °F 43.0 °F 93% 30.18 in 9.0 mi NNE 10.4 mph - N/A   Overcast
1:53 AM 45.0 °F 40.1 °F 44.1 °F 97% 30.17 in 8.0 mi North 9.2 mph - 0.00 in Rain Light Rain
2:53 AM 45.0 °F 40.6 °F 43.0 °F 93% 30.16 in 9.0 mi NNE 8.1 mph - 0.04 in Rain Light Rain
3:53 AM 44.1 °F 40.1 °F 43.0 °F 96% 30.16 in 7.0 mi North 6.9 mph - 0.06 in Rain Light Rain
4:53 AM 44.1 °F 39.0 °F 42.1 °F 93% 30.16 in 8.0 mi North 9.2 mph - 0.04 in Rain Light Rain
5:20 AM 44.1 °F 39.5 °F 42.1 °F 93% 30.15 in 7.0 mi NE 8.1 mph - 0.02 in Rain Light Rain
5:34 AM 44.1 °F 40.1 °F 42.1 °F 93% 30.16 in 9.0 mi NE 6.9 mph - 0.02 in Rain Light Rain
5:53 AM 43.0 °F 37.2 °F 42.1 °F 97% 30.16 in 10.0 mi NNE 10.4 mph - 0.03 in Rain Light Rain
6:53 AM 43.0 °F 38.2 °F 41.0 °F 93% 30.17 in 10.0 mi NNE 8.1 mph - 0.00 in   Overcast
7:53 AM 43.0 °F 38.2 °F 41.0 °F 93% 30.18 in 8.0 mi NNE 8.1 mph - 0.00 in   Overcast
8:11 AM 43.0 °F 37.2 °F 41.0 °F 93% 30.17 in 8.0 mi North 10.4 mph - N/A   Overcast
8:53 AM 43.0 °F 35.7 °F 41.0 °F 93% 30.18 in 7.0 mi NNE 15.0 mph 19.6 mph N/A   Overcast
9:53 AM 43.0 °F 38.2 °F 41.0 °F 93% 30.20 in 7.0 mi NNE 8.1 mph - N/A   Overcast
10:18 AM 44.1 °F 38.1 °F 41.0 °F 89% 30.21 in 6.0 mi NE 11.5 mph - 0.00 in Rain Light Rain
10:53 AM 45.0 °F 41.2 °F 42.1 °F 90% 30.22 in 6.0 mi NNE 6.9 mph - 0.00 in Rain Light Rain
11:00 AM 45.0 °F 40.6 °F 43.0 °F 93% 30.22 in 6.0 mi North 8.1 mph - 0.00 in Rain Light Rain
11:36 AM 46.0 °F 41.4 °F 44.1 °F 93% 30.20 in 5.0 mi NE 9.2 mph - 0.01 in   Overcast
11:53 AM 46.0 °F 41.4 °F 44.1 °F 93% 30.19 in 6.0 mi NNE 9.2 mph - 0.01 in   Overcast
12:53 PM 46.9 °F - 45.0 °F 93% 30.16 in 5.0 mi North 9.2 mph - 0.00 in   Overcast
1:53 PM 48.0 °F - 46.0 °F 93% 30.13 in 7.0 mi NNE 9.2 mph - N/A   Overcast
2:53 PM 48.9 °F - 46.0 °F 90% 30.12 in 7.0 mi NNE 6.9 mph - N/A   Overcast
3:53 PM 48.9 °F - 46.9 °F 93% 30.12 in 4.0 mi NNE 8.1 mph - N/A   Overcast
4:04 PM 48.9 °F - 46.9 °F 93% 30.13 in 2.0 mi NNE 6.9 mph - N/A   Overcast
4:53 PM 48.9 °F - 46.9 °F 93% 30.13 in 2.0 mi NNE 6.9 mph - N/A   Overcast
5:53 PM 48.9 °F - 48.0 °F 97% 30.15 in 2.0 mi NE 4.6 mph - N/A   Overcast
6:53 PM 48.9 °F - 48.0 °F 97% 30.14 in 2.0 mi NE 8.1 mph - N/A   Overcast
7:24 PM 48.9 °F - 46.9 °F 93% 30.13 in 2.0 mi NE 9.2 mph - N/A   Mostly Cloudy
7:29 PM 48.9 °F - 46.9 °F 93% 30.13 in 5.0 mi NE 6.9 mph - N/A   Mostly Cloudy
7:53 PM 50.0 °F - 46.9 °F 89% 30.14 in 5.0 mi NE 8.1 mph - N/A   Overcast
8:53 PM 50.0 °F - 48.0 °F 93% 30.14 in 6.0 mi NNE 8.1 mph - N/A   Overcast
9:41 PM 50.0 °F - 46.9 °F 89% 30.13 in 8.0 mi Variable 4.6 mph - N/A   Overcast
9:53 PM 50.0 °F - 46.9 °F 89% 30.13 in 7.0 mi NE 4.6 mph - N/A   Overcast
10:53 PM 50.0 °F - 46.9 °F 89% 30.12 in 8.0 mi ENE 5.8 mph - N/A   Overcast
11:53 PM 50.0 °F - 46.9 °F 89% 30.13 in 8.0 mi NE 4.6 mph - N/A   Overcast